STARLINK BL (44293 NORAD) Tracking and Keplerian Element Data

This shows tracking and keplerian element data for the satellite.

Feedback or suggestion? Click here.




ElementValue
Catalog44293
NameSTARLINK BL
Epoch Orbit386
Epoch Day173.84670993
Epoch Year2019
RAAN38.834
Inclination53.0073
Eccentricity0.0002047
Argument of Perigee117.2576
Mean Anonmoly242.8621
Mean Motion15.05408007
Decay Rate1.068E-05
L11 44293U 19029BL 19173.84670993 .00001068 00000-0 92841-4 0 9993
L22 44293 53.0073 38.8340 0002047 117.2576 242.8621 15.05408007 3862

Live tracking and technical data element details for STARLINK BL (NORAD 44293). STARLINK BL can be tracked NOW for your location showing map with azimuth and elevation plus other details from your city location.

Track the satellite on the map from your city or location and see movement details for azimuth, elevation, latitude, longitude, range, height, and movement on the map or in text.







IsCatalogInMostPopularTable: catalog: 44293, numindb: 84
Update: records affected: 1



GetName: 44293 STARLINK BL

Hit Count: updated at: Sun, 21 Jul 2019 21:45:09 GMT